SL-19 DEB, 23485

Orbit data source: Space-Track

SL-19 DEB, 23485 is space debris in LEO originally from a launch on Mon, 26 Dec 1994 UTC launched from the Tyuratam Missile And Space Complex (TTMTR). Debris objects in space refer to the collection of defunct objects orbiting the Earth. Examples of debris include non-operational satellites, rocket bodies, and fragments generated from explosions, collisions, or faulty payload assembly.

Loading next visibility...
Identifier
23485, 1994-085H
Orbit
LEO
Country
Flag of CISCIS
Related business
Manufacturer
Unknown
Mission
Spacecraft
Bus & Motor
Unknown
Mass
Unknown
Launch date (UTC)
1994-12-26 (31 years ago)
Launch vehicle
Unknown
Launch site
Tyuratam Missile And Space Complex (TTMTR)
Object type
Payload
Rocket body
Debris
Shape & HBR
Unknown
Radar Cross Section
Small (<0.1 m²)

Expand to show TLE details & history
Last TLE update: 2 days ago

TLE from 2 days ago
0 SL-19 DEB
1 23485U 94085H   25259.72006658  .00000206  00000-0  68053-2 0  9997
2 23485  64.6418 262.5113 0174973 228.8597 129.7114 11.30334103266384
Epoch: 2025-09-16T17:16Z
TLE epoch observation values (Epoch: 2025-09-16T17:16:53.752Z)
Latitude
0.00003°
Longitude
7.38103°
Altitude
2,105.602 km
Speed
6.817 km/s
True Right ascension
17h 30m 02s
True Declination
0° 00' 00"
Sunlit
Object was in daylight at epoch
Visualization orbit readout
Latitude
Unknown
Longitude
Unknown
Altitude
Unknown
Speed
Unknown
Apparent Right ascension
Unknown
Apparent Declination
Unknown
Sunlit
N/A
Visualization observer readout
Local Sidereal Time
06:16:22
Azimuth
Unknown
Elevation
Unknown
Doppler factor
Unknown
Orbital elements
Apogee altitude
2,154.232 km
Perigee altitude
1,860.78 km
Semi-major axis
8,385.643 km
Eccentricity
0.0175
Inclination
64.6418°
RAAN
262.5113°
Arg. of periapsis
228.8597°
True anomaly
131.23238°
Mean anomaly
129.7114°
Eccentric anomaly
130.47402°
Mean motion
2.82643 °/min
Orbital period
127.37 mins
BSTAR
0.0068053
Loading maneuver chart data...
Computing Atmospheric mass density...
Loading historical data...
Loading historical data...
Loading historical data...
Loading historical data...
Loading historical data...
Loading historical data...
Loading historical data...

Documentation

Showing up to 5 results
|